This is the latest recevied weather packets stored in our database for station/object p43g-13. If no packets are shown the sender has not sent any weather packets the latest 10 day(s).
| Time | Temp. | Humidity | Pressure | Rain* | Wind** | Luminosity | Snow |
|---|---|---|---|---|---|---|---|
| 1788006355 | 29.44° C | 79% | 1011.5 hPa | 0 mm | - | 430 W/m² | - |
| 1788006054 | 29.44° C | 80% | 1011.6 hPa | 0 mm | - | 428 W/m² | - |
| 1788005755 | 29.44° C | 80% | 1011.4 hPa | 0 mm | - | 350 W/m² | - |
| 1788005455 | 29.44° C | 80% | 1011.3 hPa | 0 mm | - | 277 W/m² | - |
| 1788005155 | 29.44° C | 81% | 1011.2 hPa | 0 mm | - | 204 W/m² | - |
| 1788004855 | 29.44° C | 82% | 1011.2 hPa | 0 mm | - | 206 W/m² | - |
| 1788004555 | 28.89° C | 83% | 1011.1 hPa | 0 mm | - | 180 W/m² | - |
| 1788004255 | 28.89° C | 83% | 1011.1 hPa | 0 mm | - | 152 W/m² | - |
| 1788003955 | 28.89° C | 83% | 1011 hPa | 0 mm | - | 85 W/m² | - |
| 1788003655 | 28.89° C | 84% | 1011 hPa | 0 mm | - | 106 W/m² | - |
| 1788003617 | 28.89° C | 84% | 1011.1 hPa | 0 mm | - | 94 W/m² | - |
| 1788003055 | 28.33° C | 84% | 1011.1 hPa | 0 mm | - | 82 W/m² | - |
| 1788002755 | 28.33° C | 85% | 1011.2 hPa | 0 mm | - | 69 W/m² | - |
| 1788002457 | 28.33° C | 86% | 1010.9 hPa | 0 mm | - | 61 W/m² | - |
| 1788002155 | 28.33° C | 87% | 1011.1 hPa | 0 mm | - | 46 W/m² | - |
| 1788001854 | 27.78° C | 88% | 1011.2 hPa | 0 mm | - | 47 W/m² | - |
| 1788001555 | 27.78° C | 90% | 1011.2 hPa | 0 mm | - | 35 W/m² | - |
| 1788001255 | 27.22° C | 91% | 1011.2 hPa | 0 mm | - | 33 W/m² | - |
| 1788000955 | 27.22° C | 92% | 1011.1 hPa | 0 mm | - | 25 W/m² | - |
| 1788000655 | 27.22° C | 93% | 1011.2 hPa | 0 mm | - | 21 W/m² | - |
| 1788000355 | 27.22° C | 93% | 1010.9 hPa | 0 mm | - | 14 W/m² | - |
| 1788000056 | 27.22° C | 93% | 1011 hPa | 0 mm | - | 11 W/m² | - |
| 1787999755 | 27.22° C | 93% | 1011 hPa | 0 mm | - | 7 W/m² | - |
| 1787999455 | 27.22° C | 93% | 1011.1 hPa | 0 mm | - | 4 W/m² | - |
| 1787999155 | 27.22° C | 93% | 1010.8 hPa | 1.78 mm | - | 2 W/m² | - |
* Rain latest hour (hover to see other rain measurements)
** Current wind speed in m/s (hover to see current wind gust speed)